User: anonymous   Login
Location: Roland
(31.1349°N, 85.4372°W)
Time: 02:34:33
(UTC+00:00)
Language:

deb Explorer IX - Orbit

View from above orbital plane
View from above orbital plane
View from above satellite
View from above satellite

Ground track
Ground track

The orbit data is extracted from the following two-line orbital elements,

1 00085U 61004C   21110.44942463  .00000106  00000-0  44874-4 0  9993
2 00085  38.7752 253.5101 0387738  26.2120 335.7706 14.21637733974786
Epoch (UTC): 20 April 2021 10:47:10
Eccentricity: 0.0387738
inclination: 38.7752°
perigee height: 541 km
apogee height: 1099 km
right ascension of ascending node: 253.5101°
argument of perigee: 26.2120°
revolutions per day: 14.21637733
mean anomaly at epoch: 335.7706°
orbit number at epoch: 97478

The dashed part of the orbit path shows where the satellite is in the earth's shadow,  

DLR